This demonstration page uses our WeatherBlox Daily Observations layout. Learn more.

Left ArrowRight Arrow

47.50024, -111.30081

Hourly Observations for April 27, 2019

Temp ( °F °C ) Dew Point ( °F °C ) Humidity (%) Winds ( mph kmh ) Pressure ( in mb ) Visibility ( mi km ) Precip ( " mm )
12:07 am 00:07 Cloudy with Light Rain 39 3.9 38 3.3 96 96 WSW 9 15 30.04 1017 7 11 0.01 0.25
12:45 am 00:45 Cloudy with Light Rain 38 3.3 38 3.3 100 100 W 5 7 30.04 1017 10 16 0.02 0.51
12:53 am 00:53 Cloudy with Light Rain 38 3.3 38 3.3 100 100 W 5 7 30.02 1017 10 16 0.02 0.51
1:53 am 01:53 Clear 34 1.1 34 1.1 100 100 SSW 8 13 30.02 1017 8 13 0.00 0.03
2:53 am 02:53 Mostly Cloudy 33 0.6 33 0.6 100 100 SSW 6 9 30.00 1016 7 11 0.00 0.00
3:53 am 03:53 Mostly Cloudy 36 2.2 34 1.1 93 93 SSW 13 20 29.97 1015 10 16 0.00 0.00
4:53 am 04:53 Clear 36 2.2 34 1.1 93 93 SSW 12 19 29.96 1014 10 16 0.00 0.00
5:53 am 05:53 Clear 37 2.8 33 0.6 86 86 SSW 12 19 29.91 1013 10 16 0.00 0.00
6:53 am 06:53 Sunny 37 2.8 33 0.6 86 86 SSW 12 19 29.90 1013 10 16 0.00 0.00
7:53 am 07:53 Partly Cloudy 42 5.6 34 1.1 73 73 SSW 16 26 29.87 1012 10 16 0.00 0.00
8:53 am 08:53 Sunny 45 7.2 34 1.1 66 66 SSW 15 24 29.85 1011 10 16 0.00 0.00
9:53 am 09:53 Cloudy 50 10 33 0.6 52 52 SW 23 37 29.80 1009 10 16 0.00 0.00
10:53 am 10:53 Cloudy 48 8.9 29 -1.7 48 48 SW 21 33 29.79 1009 10 16 0.00 0.00
11:53 am 11:53 Cloudy 50 10 29 -1.7 44 44 WSW 22 35 29.76 1008 10 16 0.00 0.00
12:53 pm 12:53 Cloudy 52 11.1 29 -1.7 41 41 WSW 16 26 29.72 1007 10 16 0.00 0.00
1:53 pm 13:53 Cloudy 52 11.1 29 -1.7 41 41 WSW 21 33 29.70 1006 10 16 0.00 0.00
2:53 pm 14:53 Cloudy 53 11.7 28 -2.2 38 38 W 18 30 29.67 1005 10 16 0.00 0.00
3:53 pm 15:53 Mostly Cloudy 53 11.7 27 -2.8 37 37 W 31 50 29.63 1004 10 16 0.00 0.00
4:53 pm 16:53 Mostly Sunny 53 11.7 29 -1.7 40 40 W 24 39 29.65 1004 10 16 0.00 0.03
5:53 pm 17:53 Sunny 51 10.6 27 -2.8 39 39 W 21 33 29.67 1005 10 16 0.00 0.00
6:53 pm 18:53 Mostly Sunny 48 8.9 18 -7.8 30 30 W 29 46 29.68 1005 10 16 0.00 0.00
7:53 pm 19:53 Mostly Sunny 47 8.3 21 -6.1 36 36 WNW 24 39 29.70 1006 10 16 0.00 0.00
8:53 pm 20:53 Clear 41 5 23 -5 49 49 W 14 22 29.74 1007 10 16 0.00 0.00
9:53 pm 21:53 Clear 38 3.3 24 -4.4 57 57 W 14 22 29.76 1008 10 16 0.00 0.00
10:53 pm 22:53 Clear 37 2.8 26 -3.3 65 65 W 13 20 29.78 1008 10 16 0.00 0.00
11:53 pm 23:53 Mostly Cloudy 35 1.7 24 -4.4 64 64 W 16 26 29.79 1009 10 16 0.00 0.00

Powered by AerisWeather